Simultaneous Nadir Overpasses (SNOs) Predictions

Prediction of SNOs between AQUA and GOES-15 Satellite Orbit:

Table of predicted SNOs for the next 14.0 days since TLE Epoch: 3/20/2020
Index Date Time (AQUA) AQUA Lat,Lon GOES-15 Lat,Lon Distance(km) Time Diff (sec)
1 03/21/2020 21:52:20 1.12,-124.29 0.30,-128.19 443.27 80
2 03/22/2020 10:13:36 -0.01,-129.45 -0.29,-128.15 147.97 80
3 03/24/2020 10:01:25 -0.63,-126.49 -0.29,-128.10 182.71 80
4 03/24/2020 22:22:48 -0.46,-131.68 0.28,-128.11 405.26 80
5 03/26/2020 22:10:38 0.16,-128.73 0.28,-128.06 75.00 80
6 03/28/2020 21:58:26 0.73,-125.76 0.28,-128.00 254.76 80
7 03/29/2020 10:19:41 0.37,-130.91 -0.27,-127.96 336.10 80
8 03/31/2020 10:07:30 -0.26,-127.96 -0.26,-127.89 7.48 80
9 04/02/2020 09:55:18 -0.83,-124.99 -0.26,-127.82 320.53 80
10 04/02/2020 22:16:42 -0.25,-130.18 0.24,-127.82 268.82 80




NCC Satellite Simultaneous Nadir Overpasses (SNOs) Prediction Service
